Location: Caualo
(45.5667°N, 10.8667°E)
Time: 19:36:49
(UTC+00:00)

Cosmos 2322 - Pass Details

Date: 07 June 2020
Orbit: 840 x 855 km, 71.0° (Epoch: 04 July)

Event Time Altitude Azimuth Distance (km) Brightness Sun altitude
Exits shadow 02:43:38 - 207° (SSW) 2,789 5.8 -6.9°
Reaches altitude 10° 02:44:27 10° 207° (SSW) 2,474 5.5 -6.8°
Maximum altitude 02:50:10 83° 296° (WNW) 866 3.8 -6.1°
Drops below altitude 10° 02:55:55 10° 25° (NNE) 2,496 7.4 -5.3°
Sets 02:58:23 0° 26° (NNE) 3,437 8.3 -5.0°
